Weather History for Akron, CO

Change the Weather History Date:

Wednesday, February 6, 2013

  Actual Average Record
Temperature  
Mean Temperature 44 °F 30 °F  
Max Temperature 57 °F 41 °F 66 °F (1950)
Min Temperature 31 °F 18 °F -13 °F (2014)
Degree Days  
Heating Degree Days 21    
Month to date heating degree days 153  
Cooling Degree Days 0    
Month to date cooling degree days 0  
Moisture  
Dew Point 21 °F    
Average Humidity 43    
Maximum Humidity 64    
Minimum Humidity 22    
Precipitation  
Precipitation 0.00 in 0.02 in 0.04 in (1971)
Month to date precipitation T 0.09  
Year to date precipitation 0.03 0.39  
Sea Level Pressure  
Sea Level Pressure 29.85 in    
Wind  
Wind Speed 13 mph (NW)    
Max Wind Speed 28 mph    
Max Gust Speed 32 mph    
Visibility 10 miles    
Events      
T = Trace of Precipitation, MM = Missing Value Source: NWS Daily Summary

Daily Weather History Graph

Daily Weather History Graph

Search for Another Location

Airport:

Trip Planner

Search our weather history database for the weather conditions in past years. The results will help you decide how hot, cold, wet, or windy it might be!

Date:

Astronomy

Feb. 06, 2013 Rise Set
Actual Time 6:56 AM MST 5:18 PM MST
Civil Twilight 6:27 AM MST 5:46 PM MST
Nautical Twilight 5:55 AM MST 6:18 PM MST
Astronomical Twilight 5:24 AM MST 6:50 PM MST
Moon 3:42 AM MST (2/6) 1:38 PM MST (2/6)
Length of Visible Light 11h 18m
Length of Day
10h 21m
Waning Crescent, 16% of the Moon is Illuminated
Feb 6
Waning Crescent
Feb 10
New
Feb 17
First Quarter
Feb 25
Full
Mar 4
Last Quarter

Hourly Weather History & Observations

Time (MST) Temp. Windchill Dew Point Humidity Pressure Visibility Wind Dir Wind Speed Gust Speed Precip Events Conditions
12:53 AM 39.0 °F 31.8 °F 17.1 °F 41% 29.81 in 10.0 mi SSW 11.5 mph - N/A   Clear
1:53 AM 37.9 °F 30.0 °F 17.1 °F 43% 29.78 in 10.0 mi SSW 12.7 mph - N/A   Clear
2:53 AM 39.0 °F 30.3 °F 17.1 °F 41% 29.75 in 10.0 mi SW 16.1 mph - N/A   Scattered Clouds
3:53 AM 34.0 °F 26.0 °F 17.1 °F 50% 29.76 in 10.0 mi WSW 10.4 mph - N/A   Clear
6:53 AM 32.0 °F 23.6 °F 18.0 °F 56% 29.80 in 10.0 mi West 10.4 mph - N/A   Clear
7:53 AM 35.1 °F 27.4 °F 19.9 °F 54% 29.81 in 10.0 mi West 10.4 mph - N/A   Clear
8:53 AM 39.9 °F 32.1 °F 21.0 °F 47% 29.81 in 10.0 mi West 13.8 mph - N/A   Partly Cloudy
9:53 AM 46.9 °F - 21.9 °F 37% 29.80 in 10.0 mi WSW 8.1 mph - N/A   Clear
10:53 AM 53.1 °F - 23.0 °F 31% 29.78 in 10.0 mi Variable 5.8 mph - N/A   Clear
11:53 AM 54.0 °F - 23.0 °F 30% 29.76 in 10.0 mi NW 10.4 mph - N/A   Mostly Cloudy
12:53 PM 55.9 °F - 21.0 °F 26% 29.75 in 10.0 mi North 20.7 mph - N/A   Mostly Cloudy
1:53 PM 55.9 °F - 18.0 °F 23% 29.75 in 10.0 mi NNW 24.2 mph 32.2 mph N/A   Clear
2:53 PM 55.0 °F - 19.9 °F 25% 29.77 in 10.0 mi NNW 18.4 mph 29.9 mph N/A   Clear
3:53 PM 52.0 °F - 19.0 °F 27% 29.81 in 10.0 mi NNW 23.0 mph 26.5 mph N/A   Overcast
4:53 PM 48.9 °F - 23.0 °F 36% 29.85 in 10.0 mi NW 12.7 mph - N/A   Overcast
6:53 PM 39.9 °F 33.4 °F 19.0 °F 43% 29.94 in 10.0 mi NNW 10.4 mph - N/A   Mostly Cloudy
7:53 PM 41.0 °F 33.9 °F 19.9 °F 43% 29.96 in 10.0 mi NNW 12.7 mph - N/A   Overcast
8:53 PM 37.9 °F 30.5 °F 23.0 °F 55% 30.00 in 10.0 mi NNW 11.5 mph - N/A   Overcast
9:53 PM 36.0 °F 29.0 °F 24.1 °F 62% 30.01 in 10.0 mi North 9.2 mph - N/A   Overcast
10:53 PM 35.1 °F 27.9 °F 25.0 °F 67% 30.01 in 10.0 mi North 9.2 mph - N/A   Overcast
11:53 PM 34.0 °F 24.6 °F 25.0 °F 70% 30.04 in 10.0 mi North 13.8 mph - N/A   Overcast